Current Version              Previous Version:    01  02  03  04  05  06  07  08  09  10  11  12  13  14  15  16  17  18  19  20  21  22  23  24  25  26  27  28  29  30  
   31  32  33  34  35  36  37  38  39  40  41  42  43  44  45  46  47  48  49  50  51  52  53  54  55  56  57  58  59  60  

[Printable]
465
ASUS44 KFWD 010903
RWRTX
NORTH TEXAS HOURLY WEATHER ROUNDUP
NATIONAL WEATHER SERVICE FORT WORTH TX
400 AM CDT FRI AUG 01 2014

NOTE: "FAIR" INDICATES FEW OR NO CLOUDS BELOW 12,000 FEET WITH NO
SIGNIFICANT WEATHER AND/OR OBSTRUCTIONS TO VISIBILITY.

TXZ118-119-011000-
DALLAS/FORT WORTH METROPLEX

CITY           SKY/WX    TMP DP  RH WIND       PRES   REMARKS
DFW AIRPORT    CLOUDY    71  66  84 N9        30.00F
DALLAS LOVE    CLOUDY    71  66  84 N7        30.00F
FTW MEACHAM    CLOUDY    70  66  87 N5        30.01F
DAL-EXECUTIVE  CLOUDY    72  66  81 N8        30.00F
FTW-ALLIANCE   CLOUDY    69  66  90 N8        30.01F
FTW-NAS-JRB    CLOUDY    73  65  75 N10       30.05F
ARLINGTON      CLOUDY    72  65  78 N7        30.00F
GRAND PRAIRIE  CLOUDY    71  64  80 N10       30.01F
ADDISON        CLOUDY    70  69  97 N6        30.02F
MESQUITE       CLOUDY    68  67  95 N5        30.00F
LANCASTER      CLOUDY    69  65  85 N3        30.01S
$$

TXZ091>094-102>105-117-120-121-131>134-011000-
NORTH CENTRAL TEXAS

CITY           SKY/WX    TMP DP  RH WIND       PRES   REMARKS
SHRMAN/DENISON CLOUDY    69  66  92 NE5       30.04S
GAINESVILLE    CLOUDY    67  66  94 N5        30.06S
BOWIE          CLOUDY    67  66  94 N5        30.05F
BRIDGEPORT     CLOUDY    68  64  85 N5        30.06F
DECATUR        CLOUDY    67  66  96 N6        30.04F
DENTON         CLOUDY    69  66  90 N6        30.02F
MCKINNEY       CLOUDY    69  67  93 N7        30.01F
GREENVILLE     CLOUDY    68  66  94 N3        30.00F FOG
ROCKWALL       CLOUDY    67  67  99 NE7       29.99F FOG
TERRELL        CLOUDY    71  70  96 N6        30.00S FOG
WAXAHACHIE     CLOUDY    69  64  83 N8        30.01F
CLEBURNE       CLOUDY    68  68 100 NW6       30.03S
GRANBURY       PTCLDY    68  64  86 CALM      30.04S
$$

TXZ083>090-098>101-113>116-127>130-139>142-154-155-011000-
WESTERN NORTH TEXAS

CITY           SKY/WX    TMP DP  RH WIND       PRES   REMARKS
WICHITA FALLS  MOCLDY    68  66  93 CALM      30.05F
WF-KICKAPOO    PTCLDY    68  67  96 CALM      30.07S
VERNON         MOCLDY    67  65  92 CALM      30.08F
ABILENE        PTCLDY    68  63  84 CALM      30.09S
ABILENE-DYESS  PTCLDY    67  63  86 NE5       30.08F
BRECKENRIDGE   PTCLDY    70  64  79 E5        30.06S
GRAHAM         PTCLDY    66  64  91 CALM      30.05S
MINERAL WELLS  PTCLDY    66  64  93 N6        30.02F
STEPHENVILLE   PTCLDY    66  62  86 N6        30.06S
COMANCHE         N/A     65  63  90 NW3       30.05F
BROWNWOOD      PTCLDY    68  63  83 N5        30.06F
COLEMAN        PTCLDY    69  63  80 N6        30.07F
BRADY          CLEAR     70  63  78 CALM      30.07R
$$

TXZ143>147-156>162-174-175-011000-
CENTRAL TEXAS

CITY           SKY/WX    TMP DP  RH WIND       PRES   REMARKS
WACO           CLOUDY    72  65  78 N10       30.00S
WACO-MCGREGOR  CLOUDY    72  63  73 N6        30.02S
HILLSBORO      CLOUDY    71  65  81 N3        30.01S
CORSICANA      CLOUDY    70  67  90 N12       30.00S FOG
MEXIA          CLOUDY    69  68  97 NW8       29.98S
HEARNE         PTCLDY    71  67  88 CALM      29.98S
CAMERON        CLOUDY    73  67  80 NW5       29.99R
TEMPLE         CLOUDY    72  61  68 NW8       29.99F
KILLEEN        NOT AVBL
KILLEEN-SKYLRK CLOUDY    70  61  73 N7        30.01S
FORT HOOD      CLOUDY    73  64  73 NW7       30.02S
GATESVILLE     PTCLDY    68  63  83 CALM      30.05S
HAMILTON       PTCLDY    66  65  96 NW3       30.05R
LAMPASAS       CLEAR     68  65  90 CALM      30.04R
$$

TXZ095>097-106>112-122>126-135>138-148>153-164>167-011000-
EAST TEXAS

CITY           SKY/WX    TMP DP  RH WIND       PRES   REMARKS
PARIS          CLOUDY    66  63  88 NE8       30.02S
SULPHUR SPRNGS CLOUDY    69  68  98 NE6       30.01F FOG
CLARKSVILLE    CLOUDY    68  67  98 NE5       30.01S
MOUNT PLEASANT CLOUDY    68  67  95 E10       30.00S
GILMER         DRIZZLE   68  68 100 NE5       29.99S
MINEOLA        CLOUDY    70  70 100 NE3       29.99S FOG
TYLER          CLOUDY    70  68  93 N6        29.96F
LONGVIEW       CLOUDY    68  66  93 E8        29.95F FOG
MARSHALL       CLOUDY    70  67  91 CALM      29.98S
ATHENS         CLOUDY    68  68 100 N6        29.96F FOG
JACKSONVILLE   FOG       71  71  97 W6        29.97F VSB 3/4
HENDERSON      CLOUDY    69  69  99 E5        29.95F FOG
NACOGDOCHES    CLOUDY    73  73 100 SW3       29.94S
LUFKIN         CLOUDY    76  72  87 CALM      29.93F
$$

SUPPLEMENTAL OBSERVATIONS (CENTRAL)

CITY           SKY/WX    TMP DP  RH WIND       PRES   REMARKS
$$

SUPPLEMENTAL OBSERVATIONS (WEST)

CITY           SKY/WX    TMP DP  RH WIND       PRES   REMARKS
$$

SUPPLEMENTAL OBSERVATIONS (EAST)

CITY           SKY/WX    TMP DP  RH WIND       PRES   REMARKS
$$

SUPPLEMENTAL OBSERVATIONS ARE A COLLECTION OF AUTOMATED INSTRUMENTS
THAT ARE MAINTAINED BY A VARIETY OF FEDERAL AND STATE AGENCIES.
CERTAIN ELEMENTS...SUCH AS HUMIDITY VALUES AND SUSTAINED WIND
SPEEDS...MAY BE APPROXIMATED.